Regional Weather Roundup
Issued by NWS

Home | Current Version | Previous Version | Graphics & Text | Print | Product List | Glossary On
Versions: 1 2 3 4 5 6 7 8 9 10 11 12 13 14 15 16 17 18 19 20 21 22 23 24 25 26 27
000
ASUS45 KBOU 211907
RWRCO

WEATHER ROUNDUP FOR COLORADO
NATIONAL WEATHER SERVICE DENVER/BOULDER CO
100 PM MDT MON AUG 21 2017

NOTE: "FAIR" INDICATES FEW OR NO CLOUDS BELOW 12000 FEET WITH NO
SIGNIFICANT WEATHER AND/OR OBSTRUCTIONS TO VISIBILITY.

COZ001>005-013-030-031-212000-
...NORTHWEST COLORADO...

CITY           SKY/WX    TMP DP  RH WIND       PRES   REMARKS
CRAIG          FAIR      80  37  21 NE5       30.26R
HAYDEN         FAIR      76  38  25 CALM      30.30R
MEEKER         FAIR      80  39  23 VRB5      30.26R
RABBIT EARS PA FAIR      61  34  36 E3        30.58R
STEAMBOAT SPGS FAIR      73  39  29 E3        30.30S
WALDEN         FAIR      72  32  23 NW8       30.40S
$$

COZ006>008-011-212000-
...WEST CENTRAL VALLEYS...

CITY           SKY/WX    TMP DP  RH WIND       PRES   REMARKS
GRAND JUNCTION FAIR      84  42  22 W6        30.14S
MONTROSE       FAIR      78  44  29 N6        30.23R
EAGLE          FAIR      76  41  28 W5        30.28F
RIFLE          FAIR      80  37  21 CALM      30.19R
DELTA          FAIR      83  40  22 CALM      30.18S
NUCLA          FAIR      79  39  24 NW3       30.27R
$$

COZ017>023-064>068-212000-
...SOUTHWEST COLORADO...

CITY           SKY/WX    TMP DP  RH WIND       PRES   REMARKS
DURANGO        FAIR      73  44  35 W8        30.28S
CORTEZ         FAIR      77  50  38 SW7       30.24S
PAGOSA SPRINGS FAIR      68  41  36 W3        30.36S
TELLURIDE      FAIR      69  37  30 NW5       30.46R
WOLF CREEK PAS NOT AVBL
$$

COZ009-010-012-014-032>034-037-058>063-212000-
...CENTRAL COLORADO...

CITY           SKY/WX    TMP DP  RH WIND       PRES   REMARKS
ASPEN          FAIR      75  38  26 N7        30.34R
BUENA VISTA    FAIR      74  32  21 W24       30.34S
COPPER MTN     FAIR      59  27  29 N6        30.67S
BERTHOUD PASS  FAIR      50  45  81 NE3       30.71R
COTTONWOOD PAS CLOUDY    66  30  26 CALM      30.49S
GUNNISON       FAIR      71  44  37 SW7       30.33F
KREMMLING      FAIR      77  37  24 CALM      30.35S
LEADVILLE      FAIR      64  31  28 N17G23    30.48R
MONARCH PASS   FAIR      55  32  41 E17       30.74S
SALIDA         FAIR      76  40  27 S3        30.37S
SUNLIGHT       FAIR      59  32  36 CALM      30.61R
WILKERSON PASS PTSUNNY   59  32  36 E8G21     30.63R
$$

COZ069>075-212000-
...SAN LUIS VALLEY/SANGRE DE CRISTO MOUNTAINS...

CITY           SKY/WX    TMP DP  RH WIND       PRES   REMARKS
ALAMOSA        FAIR      71  42  35 CALM      30.31S
DEL NORTE      FAIR      69  43  38 E3        30.35S
LA VETA PASS   NOT AVBL
SAGUACHE       FAIR      72  45  37 CALM      30.34F
$$

COZ035-036-038>040-212000-
...NORTHERN COLORADO FRONT RANGE...

CITY           SKY/WX    TMP DP  RH WIND       PRES   REMARKS
DENVER INTL AP FAIR      82  44  26 NE18      30.16R
DMNS CITY PARK   N/A     81  43  25 NE9       30.17R
AURORA         MOSUNNY   81  47  30 NE15      30.19R
FRONT RANGE AP FAIR      81  45  28 NE17G26   30.18S
ERIE MUNI ARPT FAIR      82  46  28 NE8       30.20R
BOULDER MUN AP FAIR      82  45  26 NE3       30.17R
CENTENNIAL     PTSUNNY   81  40  23 NE12      30.20R
BROOMFIELD     MOSUNNY   81  41  24 N6        30.19R
FORT COLLINS   FAIR      82  46  28 NE18      30.15R
LONGMONT       FAIR      83  50  31 E7        30.18R
$$

COZ041-046-047-076>085-087-088-212000-
...PIKES PEAK/PALMER DIVIDE AND SOUTHERN FOOTHILLS...

CITY           SKY/WX    TMP DP  RH WIND       PRES   REMARKS
COLO. SPRINGS  FAIR      81  47  30 VRB3      30.22R
A. F. ACADEMY  FAIR      78  44  29 N10G18    30.24R
SCHRIEVER AFB  FAIR      79  44  29 N12       30.22R
CHEYENNE MTN   FAIR      75  48  38 E3        30.22
ELLICOTT       NOT AVBL
FALCON         FAIR      78  41  26 N5        30.28R
FORT CARSON    PTSUNNY   79  49  34 CALM      30.19R
LIMON          FAIR      82  54  37 N15       30.15R
MONUMENT HILL  FAIR      73  43  33 N10       30.30S
CANON CITY     SUNNY     82  52  34 E6        30.15R
WALSENBURG     FAIR      84  43  23 S5        30.18S
TRINIDAD       FAIR      79  53  40 SW5       30.17R
$$

COZ042>045-048>051-090-091-212000-
...NORTHEAST COLORADO...

CITY           SKY/WX    TMP DP  RH WIND       PRES   REMARKS
GREELEY ARPT   FAIR      81  47  30 N18       30.13R
AKRON          FAIR      83  50  31 N14       30.09S
BURLINGTON     FAIR      81  56  42 CALM      30.03F
WRAY           NOT AVBL
YUMA           FAIR      81  48  32 N14       30.04R
STERLING       FAIR      82  54  36 N14G25    30.06R
HOLYOKE        FAIR      81  68  65 N10       30.02S
FORT MORGAN    FAIR      86  41  20 N22       30.11R
$$

COZ086-089-092>099-212000-
...SOUTHEAST COLORADO...

CITY           SKY/WX    TMP DP  RH WIND       PRES   REMARKS
PUEBLO         FAIR      86  49  27 SE3       30.09R
LA JUNTA       FAIR      83  53  35 W6        30.05S
LAMAR          FAIR      79  60  52 W5        30.01R
SPRINGFIELD      N/A     78  61  55 SW15G21   30.08S
$$




USA.gov is the U.S. government's official web portal to all federal, state and local government web resources and services.